Location: ???????????
(54.5822°N, 39.1075°E)
Time: 07:12:10
(UTC+00:00)

Landsat 5 - Pass Details

Date: 19 May 2025
Orbit: 510 x 610 km, 98.1° (Epoch: 23 June)

Event Time Altitude Azimuth Distance (km) Brightness Sun altitude
Rises 20:16:04 0° 18° (NNE) 2,806 7.9 -14.2°
Reaches altitude 10° 20:18:15 10° 23° (NNE) 1,917 6.9 -14.3°
Maximum altitude 20:22:20 53° 101° (E) 734 3.7 -14.4°
Enters shadow 20:24:36 25° 169° (SSE) 1,226 4.5 -14.5°
